Location: Unspecified
(0.0000°N, 0.0000°E)
Time: 04:56:43
(UTC+00:00)

Transit 2A - Pass Details

Date: 03 October 2020
Orbit: 593 x 966 km, 66.7° (Epoch: 28 October)

Event Time Altitude Azimuth Distance (km) Brightness Sun altitude
Rises 16:10:52 0° 17° (NNE) 3,206 9.0 24.4°
Reaches altitude 10° 16:15:38 10° 56° (NE) 2,170 7.9 23.2°
Maximum altitude 16:16:32 10° 67° (ENE) 2,118 7.8 23.0°
Drops below altitude 10° 16:17:27 10° 78° (ENE) 2,131 7.8 22.8°
Sets 16:21:51 0° 118° (ESE) 2,954 8.6 21.7°
